Weather in Pukhnovo

Russia / Pskov Oblast     55°58′10″N   31°05′59″E
temp.,
°C
wind,
m/s
gust,
m/s
humid.,
%
clouds,
%
prec.,
mm/h
press.,
hPa
HPBL,
m
14 may, fri
fri1400:00+7se399727 0.0 1012244
03:00+6se399746 0.0 1012204
06:00+8ese4129591 0.1 1012476
09:00+11se41390100 0.1 1011671
12:00+14sse51171100 0.0 10121014
15:00+14se496750 0.0 1011848
18:00+17se376631 0.3 10091016
21:00+12ese37945 1.3 1008125
15 may, sat
sat1500:00+11ese2798100 0.6 1008140
03:00+10ese2398100 0.8 100767
06:00+10ese239927 0.0 100781
09:00+16sse128563 0.0 1007425
12:00+19sse236712 0.8 10061026
15:00+20s236717 3.5 10051091
18:00+17ssw258497 2.8 1005258
21:00+13s229199 3.6 100519
16 may, sun
sun1600:00+12ssw2497100 0.6 100572
03:00+11ssw249775 0.8 100685
06:00+11ssw2398100 0.6 100799
09:00+13sw249695 1.1 1008208
12:00+18ssw247180 0.8 10081089
15:00+18sw3683100 4.9 1009771
18:00+17sw358762 1.3 1009609
21:00+14s119127 2.1 101011
17 may, mon
mon1700:00+12s24960 0.0 101161
03:00+11sse23971 0.0 101162
06:00+11se259735 0.0 1011109
09:00+16se3583100 0.0 1011351
12:00+21se355698 0.0 10101318
15:00+22se4648100 0.0 10081603
18:00+17sse3789100 2.5 1007332
21:00+15nne2599100 7.7 1004155
18 may, tue
tue1800:00+14wnw1299100 4.1 100360
03:00+14wsw3699100 6.6 1003365
06:00+13wsw259887 0.7 1005250
09:00+15wsw3490100 0.9 1006527
12:00+18w2367100 0.1 1007999
15:00+19wnw336274 0.1 10071150
18:00+19nw235895 0.0 10071312
21:00+14n1281100 0.0 100813